Preview of NWS' New Version of Forecast
This preview is not operational and should not be used for support decisions.

Regional Weather Roundup (RWR)

Issued by National Weather Service (NWS)

                            
000
ASUS46 KSEW 250410
RWRWA 

WASHINGTON REGIONAL WEATHER ROUNDUP
NATIONAL WEATHER SERVICE SEATTLE WA
900 PM PDT MON JUN 24 2019

NOTE:"FAIR" INDICATES FEW OR NO CLOUDS BELOW 12,000 FEET WITH NO 
SIGNIFICANT WEATHER AND/OR OBSTRUCTIONS TO VISIBILITY.

WAZ507-509-555>559-250500-
SEATTLE, TACOMA, EVERETT, AND VICINITY
  
CITY           SKY/WX    TMP DP  RH WIND       PRES   REMARKS
EVERETT        CLEAR     59  49  69 N7        29.95F                  
BOEING FIELD   PTCLDY    65  45  48 NW6       29.93F                  
RENTON         CLEAR     66  45  46 NW7       29.92F                  
SEATAC AIRPORT PTCLDY    63  44  50 NW5       29.94S                  
JBLM-MCCHORD   CLEAR     64  48  56 E3        29.92F                  
PUYALLUP       FAIR      61  48  63 CALM      29.93F                  
BREMERTON      PTCLDY    61  49  64 CALM      29.94F                  
JBLM-FT LEWIS  CLEAR     64  47  54 NW5       29.92F                  
TACOMA NARROWS CLEAR     64  43  46 NE5       29.94S                  
$$
 
WAZ001-503-506-510-514-515-250500-
NORTH INTERIOR
  
CITY           SKY/WX    TMP DP  RH WIND       PRES   REMARKS
BELLINGHAM     PTCLDY    61  49  64 S3        29.93F                  
FRIDAY HARBOR  PTCLDY    55  47  74 S3        29.95F                  
EASTSOUND      PTCLDY    61  48  63 S7        29.93S                  
PORT ANGELES   PTCLDY    53  44  71 W7        29.97F                  
EDIZ HOOK      FAIR      55  46  71 W15G21    29.95F                  
PORT TOWNSEND  FAIR      55  46  71 NW6       29.95S                  
NAS WHIDBEY    MOCLDY    56  48  74 SW7       29.99F                  
ARLINGTON      PTCLDY    59  50  72 NW9       29.95S                  
BURLINGTON     CLEAR     59  52  77 CALM      29.95S                  
$$
 
WAZ020-022-039-040-504-511-512-250500-
SOUTHWEST INTERIOR
  
CITY           SKY/WX    TMP DP  RH WIND       PRES   REMARKS
SHELTON        PTCLDY    62  46  55 W8        29.92R                  
OLYMPIA        CLEAR     63  42  46 CALM      29.92F                  
CHEHALIS       FAIR      61  52  72 CALM      29.93S                  
KELSO          PTCLDY    64  49  57 VRB5      29.93S                  
VANCOUVER      PTCLDY    66  45  46 CALM      29.91F                  
SCAPPOOSE, OR  PTCLDY    62  47  57 W3        29.91S                  
PORTLAND, OR   PTCLDY    67  45  45 W6        29.91F                  
$$
 
WAZ021-516-517-250500-
WASHINGTON COAST
  
CITY           SKY/WX    TMP DP  RH WIND       PRES   REMARKS
FORKS          PTCLDY    53  46  77 NW3       29.96F                  
HOQUIAM        CLEAR     57  48  72 NW5       29.95F                  
ASTORIA, OR    PTCLDY    58  48  69 NW7       29.94F                  
$$
 
WAZ019-023-024-040-567>569-250500-
CASCADE MOUNTAINS AND COLUMBIA GORGE
  
CITY           SKY/WX    TMP DP  RH WIND       PRES   REMARKS
STAMPEDE PASS  CLEAR     46  39  76 VRB5      29.96F                  
TROUTDALE, OR  PTCLDY    65  48  54 CALM      29.91F                  
HOOD RIVER, OR MOCLDY    63  43  48 CALM      29.89S                  
THE DALLES, OR MOCLDY    67  36  31 NW12      29.85S                  
$$

WAZ026-027-041>044-520-521-250500-
EAST SLOPES
  
CITY           SKY/WX    TMP DP  RH WIND       PRES   REMARKS
OMAK           PTCLDY    68  40  35 N17G28    29.82R                  
WENATCHEE      CLEAR     66  35  31 NW8       29.83R                  
ELLENSBURG     PTCLDY    61  40  45 NW18G28   29.86S                  
YAKIMA         PTCLDY    68  42  38 NW8       29.83R                  
SUNNYSIDE ARPT MOCLDY    65  48  53 NE7       29.78                   
YAKIMA TC      NOT AVBL                                               
$$

WAZ028-034-035-250500-
COLUMBIA BASIN
  
CITY           SKY/WX    TMP DP  RH WIND       PRES   REMARKS
EPHRATA        PTCLDY    68  39  34 S8        29.81S                  
MOSES LAKE     PTCLDY    70  41  34 S7        29.82S                  
PASCO          MOCLDY    75  37  25 SE6       29.80S                  
RICHLAND ARPT  MOCLDY    73  39  29 E7        29.79F                  
HERMISTON, OR  MOCLDY    68  36  30 SE5       29.80S                  
$$

WAZ036>038-250500-
NORTHEAST WASHINGTON
  
CITY           SKY/WX    TMP DP  RH WIND       PRES   REMARKS
SPOKANE GEIGER PTCLDY    65  35  33 S6        29.87S                  
SPOKANE FELTS  PTCLDY    67  35  30 SW3       29.86S                  
FAIRCHILD AFB  CLEAR     61  35  38 S6        29.87S                  
COEURDALENE,ID PTCLDY    59  41  51 S5        29.88S                  
DEER PARK      CLEAR     58  46  64 CALM      29.87R                  
$$

WAZ029>033-250500-
SOUTHEAST WASHINGTON
  
CITY           SKY/WX    TMP DP  RH WIND       PRES   REMARKS
PULLMAN        PTCLDY    60  37  42 CALM      29.90S                  
LEWISTON, ID   PTCLDY    69  36  29 E6        29.84S                  
WALLA WALLA    MOCLDY    71  31  22 CALM      29.83F                  
PENDLETON, OR  MOCLDY    67  27  22 CALM      29.83F                  
$$